User: anonymous   Login
Location: Milton Keynes
(52.0316°N, 0.7531°W)
Time: 08:52:29
(UTC+00:00)
Language:

Genesis I - Orbit

View from above orbital plane
View from above orbital plane
View from above satellite
View from above satellite

Ground track
Ground track

The orbit data is extracted from the following two-line orbital elements,

1 29252U 06029A   22330.82754258  .00004501  00000-0  19718-3 0  9997
2 29252  64.5219 257.3277 0049631 238.3140 121.3141 15.22316599903677
Epoch (UTC): 26 November 2022 19:51:39
Eccentricity: 0.0049631
inclination: 64.5219°
perigee height: 465 km
apogee height: 533 km
right ascension of ascending node: 257.3277°
argument of perigee: 238.3140°
revolutions per day: 15.22316599
mean anomaly at epoch: 121.3141°
orbit number at epoch: 90367

The dashed part of the orbit path shows where the satellite is in the earth's shadow,  

DLR